Flag for Canada Weather past 2 weeks in Red Deer, Alberta, Canada

Now
57 °F

Passing clouds.


Feels Like: 56 °F
Forecast: 34 / 58 °F
Wind: 6 mph from Southwest

Location: Red Deer

Current Time: Oct 1, 2014 at 3:00:46 PM

Latest Report: Oct 1, 2014 at 2:00 PM


Visibility: 15 mi

Pressure: 29.81 "Hg

Humidity: 31%

Dew point: 27 °F

Location of Red DeerLocation

Historic Weather in Red Deer — Graph

°F

Red Deer temperature yesterday

Maximum temperature yesterday: 57 °F (at 4:00 PM)
Minimum temperature yesterday: 41 °F (at 11:00 PM)
Average temperature yesterday: 49 °F

Past Weeks' High & Low Weather Summary

 TemperatureHumidityPressure
High81 °F (Sep 21, 4:00 PM)100% (Sep 17, 8:00 AM)30.46 "Hg (Sep 17, 8:00 AM)
Low30 °F (Oct 1, 5:00 AM)21% (Sep 22, 2:00 PM)29.57 "Hg (Sep 18, 6:00 AM)
Average55 °F69%29.91 "Hg
* Reported Sep 16 2:00 PM — Oct 1 2:00 PM, Red Deer, Weather by CustomWeather, © 2014

Note: Actual official high and low records may vary slightly from our data, if they occured in-between our weather recording intervals... More about our weather records

Advertising

Red Deer weather history for previous 24 hours

 ConditionsComfort  
Time TempWeatherWind HumidityBarometerVisibility
2:00 PM
Oct 1
57 °FPassing clouds.6 mph31%29.81 "Hg15 mi
1:00 PM55 °FPassing clouds.12 mph47%29.85 "Hg15 mi
12:00 PM52 °FPassing clouds.7 mph58%29.88 "Hg15 mi
11:00 AM46 °FPassing clouds.7 mph71%29.92 "Hg15 mi
10:00 AM41 °FPassing clouds.5 mph81%29.95 "Hg15 mi
9:00 AM36 °FPassing clouds.5 mph93%29.96 "Hg15 mi
8:00 AM30 °FPassing clouds.5 mph100%29.97 "Hg15 mi
7:00 AM30 °FClear.6 mph100%29.95 "Hg15 mi
6:00 AM32 °FClear.6 mph93%29.94 "Hg15 mi
5:00 AM30 °FClear.5 mph93%29.93 "Hg15 mi
4:00 AM36 °FClear.6 mph87%29.92 "Hg15 mi
3:00 AM39 °FClear.8 mph75%29.91 "Hg15 mi
2:00 AM39 °FClear.8 mph75%29.92 "Hg15 mi
1:00 AM39 °FClear.8 mph81%29.91 "Hg15 mi
12:00 AM41 °FClear.7 mph70%29.92 "Hg15 mi
11:00 PM
Sep 30
41 °FClear.6 mph70%29.91 "Hg15 mi
10:00 PM43 °FClear.7 mph71%29.90 "Hg15 mi
9:00 PM45 °FPassing clouds.6 mph66%29.89 "Hg15 mi
8:00 PM46 °FBroken clouds.7 mph62%29.87 "Hg15 mi
7:00 PM54 °FBroken clouds.12 mph47%29.83 "Hg15 mi
6:00 PM57 °FBroken clouds.12 mph41%29.80 "Hg15 mi
5:00 PM57 °FPartly sunny.15 mph44%29.79 "Hg15 mi
4:00 PM57 °FBroken clouds.17 mph41%29.78 "Hg15 mi
3:00 PM55 °FPartly sunny.23 mph47%29.79 "Hg15 mi
Weather by CustomWeather, © 2014

See weather overviewHow to use our weather pages